Location: Cahas Mountain Overlook
(37.0833°N, 80.1000°W)
Time: 10:47:29
(UTC-05:00)

S-56A Canister/Altair - Pass Details

Date: 01 December 2023
Orbit: 640 x 2488 km, 38.9° (Epoch: 25 February)

Event Time Altitude Azimuth Distance (km) Brightness Sun altitude
Rises 18:40:10 0° 283° (WNW) 3,441 12.0 -18.9°
Reaches altitude 10° 18:42:29 10° 275° (W) 2,676 11.4 -19.3°
Maximum altitude 18:48:28 40° 207° (SSW) 1,715 9.5 -20.5°
Drops below altitude 10° 18:57:09 10° 143° (SE) 3,885 10.9 -22.2°
Sets 19:01:15 0° 137° (SE) 5,183 11.5 -23.0°
